FW3260 Weather Reports


time (UTC)temp
C
wind
direction
speed
KPH
gust
KPH
rain 1hr
cm
rain 24hr
cm
rain mn
cm
humidity
%
barometer
mb
20260906125018 15 203 1.6 3.2 0.03 0.84 0.79 96 1016.8
20260906124018 15 315 1.6 3.2 0.03 0.84 0.79 96 1016.8
20260906123018 15 0.0 3.2 0.03 0.84 0.79 96 1016.8
20260906122018 14 0.0 0.0 0.03 0.84 0.79 96 1016.7
20260906121018 14 0.0 0.0 0.00 0.81 0.76 95 1016.5
20260906120018 14 0.0 0.0 0.00 0.81 0.76 96 1016.5
20260906115018 14 0.0 0.0 0.00 0.81 0.76 96 1016.4
20260906114038 14 0.0 0.0 0.00 0.81 0.76 95 1016.3
20260906113017 14 0.0 1.6 0.00 0.81 0.76 95 1016.3
20260906112018 14 0.0 1.6 0.00 0.81 0.76 95 1016.2
20260906111017 14 0.0 1.6 0.00 0.81 0.76 95 1016.1
20260906110018 13 0.0 0.0 0.00 0.81 0.76 95 1015.9
20260906105018 13 0.0 0.0 0.00 0.81 0.76 95 1015.8
20260906104018 13 0.0 0.0 0.00 0.81 0.76 95 1015.7
20260906103018 13 0.0 0.0 0.05 0.81 0.76 95 1015.5
20260906102038 13 0.0 1.6 0.20 0.81 0.76 95 1015.2
20260906101018 13 0.0 0.0 0.38 0.81 0.76 95 1015.4
20260906100058 13 0.0 3.2 0.48 0.81 0.76 95 1015.3
20260906095017 13 0.0 1.6 0.58 0.81 0.76 95 1015.4
20260906094018 13 90 1.6 3.2 0.69 0.81 0.76 95 1015.1
20260906093017 13 90 1.6 4.8 0.66 0.76 0.71 94 1015.3
20260906092019 14 113 1.6 4.8 0.51 0.61 0.56 94 1015.4
20260906091021 15 113 1.6 8.0 0.36 0.43 0.38 94 1015.2
20260906090020 15 90 4.8 17.7 0.25 0.33 0.28 95 1015.1
20260906085019 15 0.0 3.2 0.15 0.23 0.18 95 1014.8
20260906084019 15 158 1.6 4.8 0.05 0.13 0.08 95 1014.7
20260906083019 15 0.0 3.2 0.03 0.10 0.05 95 1014.7
20260906082019 15 0.0 0.0 0.03 0.10 0.05 95 1014.6
20260906081019 15 0.0 0.0 0.00 0.08 0.03 95 1014.5
20260906080021 15 0.0 0.0 0.00 0.08 0.03 94 1014.3
20260906075039 15 0.0 0.0 0.00 0.08 0.03 95 1014.2
20260906074019 15 0.0 0.0 0.00 0.08 0.03 95 1014.1
20260906073039 15 0.0 0.0 0.00 0.08 0.03 95 1014.2
20260906072019 16 0.0 0.0 0.00 0.08 0.03 94 1014.4
20260906071019 16 0.0 0.0 0.03 0.08 0.03 94 1014.2
20260906070020 16 0.0 0.0 0.03 0.08 0.03 94 1014.3
20260906065019 16 0.0 0.0 0.03 0.08 0.03 94 1014.3
20260906064041 16 0.0 0.0 0.03 0.08 0.03 94 1014.3
20260906063019 16 0.0 0.0 0.03 0.08 0.03 94 1014.3
20260906062039 16 0.0 0.0 0.03 0.08 0.03 94 1014.4
20260906061019 16 0.0 0.0 0.00 0.05 0.00 94 1014.3
20260906060019 16 0.0 0.0 0.00 0.05 0.00 94 1014.3
20260906055019 16 0.0 0.0 0.00 0.05 0.00 94 1014.3
20260906054039 16 0.0 0.0 0.00 0.05 0.00 94 1014.3
20260906053019 16 0.0 0.0 0.00 0.05 0.00 94 1014.3
20260906052019 16 0.0 0.0 0.00 0.05 0.00 94 1014.4
20260906051039 16 0.0 0.0 0.00 0.05 0.00 94 1014.4
20260906050019 16 0.0 0.0 0.00 0.05 0.00 94 1014.6
20260906045028 16 0.0 0.0 0.00 0.05 0.00 94 1014.6
20260906044019 16 0.0 3.2 0.00 0.05 0.00 94 1014.5
20260906043019 16 0.0 3.2 0.00 0.05 0.00 94 1014.5
20260906042019 16 0.0 0.0 0.00 0.05 0.00 94 1014.5
20260906041019 16 0.0 0.0 0.00 0.05 0.00 94 1014.6
20260906040019 16 0.0 3.2 0.00 0.05 0.05 94 1014.4
20260906035019 16 0.0 1.6 0.00 0.05 0.05 94 1014.4
20260906034019 16 0.0 1.6 0.00 0.05 0.05 94 1014.3
20260906033019 16 0.0 1.6 0.00 0.05 0.05 93 1014.2
20260906032018 16 0.0 1.6 0.00 0.05 0.05 93 1014.1
20260906031019 16 0.0 3.2 0.00 0.05 0.05 93 1014.1
20260906030059 17 0.0 0.0 0.00 0.05 0.05 93 1014.2
20260906025019 17 0.0 1.6 0.00 0.05 0.05 93 1014.2
20260906024019 17 0.0 3.2 0.00 0.05 0.05 93 1014.3
20260906023019 17 0.0 1.6 0.00 0.05 0.05 93 1014.3
20260906022039 17 0.0 3.2 0.00 0.05 0.05 93 1014.2
20260906021019 17 0.0 1.6 0.00 0.05 0.05 93 1014.1
20260906020019 17 0.0 0.0 0.00 0.05 0.05 92 1014.1
20260906015019 17 0.0 0.0 0.00 0.05 0.05 92 1014.1
20260906014019 17 0.0 0.0 0.00 0.05 0.05 92 1014.1
20260906013019 17 0.0 0.0 0.00 0.05 0.05 92 1014.1
20260906012019 17 0.0 0.0 0.00 0.05 0.05 92 1014.1
20260906011019 17 0.0 0.0 0.00 0.05 0.05 92 1014.3
20260906010019 17 0.0 0.0 0.00 0.05 0.05 91 1014.1
20260906005019 17 0.0 3.2 0.03 0.05 0.05 91 1014.0
20260906004039 17 0.0 0.0 0.03 0.05 0.05 91 1014.0
20260906003019 17 0.0 1.6 0.03 0.05 0.05 91 1013.7
20260906002019 17 0.0 0.0 0.03 0.05 0.05 90 1013.8
20260906001019 17 0.0 0.0 0.03 0.05 0.05 90 1013.7
20260906000019 17 0.0 1.6 0.03 0.05 0.05 90 1013.6
20260905235019 17 225 1.6 3.2 0.00 0.03 0.03 89 1013.5
20260905234019 17 0.0 0.0 0.03 0.03 0.03 88 1013.4
20260905233059 17 0.0 0.0 0.03 0.03 0.03 88 1013.2
20260905232019 18 0.0 0.0 0.03 0.03 0.03 87 1013.1
20260905231019 18 0.0 0.0 0.03 0.03 0.03 87 1013.1
20260905230019 18 0.0 0.0 0.03 0.03 0.03 86 1013.0
20260905225039 18 0.0 0.0 0.03 0.03 0.03 86 1012.9
20260905224019 18 0.0 0.0 0.00 0.00 0.00 86 1013.0
20260905223019 18 68 3.2 6.4 0.00 0.00 0.00 85 1012.8
20260905222018 18 68 3.2 12.9 0.00 0.00 0.00 83 1012.7
20260905221019 18 90 4.8 11.3 0.00 0.00 0.00 82 1012.7
20260905220019 19 90 6.4 14.5 0.00 0.00 0.00 81 1012.6
20260905215019 19 68 8.0 16.1 0.00 0.00 0.00 80 1012.5
20260905214039 20 68 8.0 14.5 0.00 0.00 0.00 78 1012.2
20260905213020 20 90 4.8 11.3 0.00 0.00 0.00 78 1012.0
20260905212039 20 68 4.8 12.9 0.00 0.00 0.00 78 1011.9
20260905211038 21 180 1.6 4.8 0.00 0.00 0.00 78 1011.9
20260905210018 21 0.0 0.0 0.00 0.00 0.00 78 1011.9
20260905205018 21 0.0 3.2 0.00 0.00 0.00 78 1011.8
20260905204018 21 0.0 1.6 0.00 0.00 0.00 78 1011.8
20260905203039 21 68 1.6 3.2 0.00 0.00 0.00 77 1011.7
20260905202019 21 68 1.6 6.4 0.00 0.00 0.00 77 1011.7
20260905201038 21 0.0 3.2 0.00 0.00 0.00 78 1011.5
20260905200018 21 68 1.6 9.7 0.00 0.00 0.00 79 1011.5
20260905195019 20 68 1.6 4.8 0.00 0.00 0.00 78 1011.5
20260905194018 20 68 3.2 8.0 0.00 0.00 0.00 79 1011.6
20260905193018 20 90 4.8 11.3 0.00 0.00 0.00 78 1011.5
20260905192020 21 90 3.2 6.4 0.00 0.00 0.00 76 1011.5
20260905191018 21 68 4.8 9.7 0.00 0.00 0.00 74 1011.4
20260905190018 21 68 1.6 6.4 0.00 0.00 0.00 73 1011.3
20260905185018 21 90 1.6 3.2 0.00 0.00 0.00 72 1011.4
20260905184018 22 90 3.2 6.4 0.00 0.00 0.00 71 1011.5
20260905183018 22 113 1.6 4.8 0.00 0.00 0.00 71 1011.3
20260905182019 22 68 4.8 9.7 0.00 0.00 0.00 71 1011.5
20260905181018 22 113 3.2 6.4 0.00 0.00 0.00 71 1011.5
20260905180039 22 68 3.2 6.4 0.00 0.00 0.00 72 1011.4
20260905175018 22 90 3.2 6.4 0.00 0.00 0.00 72 1011.4
20260905174019 22 90 3.2 11.3 0.00 0.00 0.00 71 1011.3
20260905173018 21 68 3.2 8.0 0.00 0.00 0.00 74 1011.4
20260905172018 21 113 3.2 11.3 0.00 0.00 0.00 73 1011.3
20260905171018 21 68 3.2 12.9 0.00 0.00 0.00 74 1011.3
20260905170018 21 68 4.8 17.7 0.00 0.00 0.00 73 1011.3
20260905165018 22 90 3.2 6.4 0.00 0.00 0.00 72 1011.2
20260905164018 22 113 3.2 9.7 0.00 0.00 0.00 72 1011.2
20260905163038 22 113 3.2 6.4 0.00 0.00 0.00 73 1011.2
20260905162018 22 113 1.6 6.4 0.00 0.00 0.00 72 1011.2
20260905161018 22 90 6.4 16.1 0.00 0.00 0.00 71 1011.3
20260905160018 23 248 3.2 9.7 0.00 0.00 0.00 70 1011.3
20260905155018 21 90 3.2 6.4 0.00 0.00 0.00 75 1011.3
20260905154018 21 293 1.6 6.4 0.00 0.00 0.00 74 1011.3
20260905153018 21 113 3.2 9.7 0.00 0.00 0.00 74 1011.4
20260905152018 21 113 4.8 11.3 0.00 0.00 0.00 74 1011.4
20260905151018 21 90 3.2 11.3 0.00 0.00 0.00 75 1011.3
20260905150018 21 225 3.2 8.0 0.00 0.00 0.00 76 1011.3
20260905145018 21 338 3.2 8.0 0.00 0.00 0.00 75 1011.3
20260905144018 21 113 4.8 12.9 0.00 0.00 0.00 77 1011.2
20260905143018 21 0.0 6.4 0.00 0.00 0.00 77 1011.2
20260905142018 21 248 1.6 6.4 0.00 0.00 0.00 77 1011.2
20260905141018 21 68 1.6 3.2 0.00 0.00 0.00 78 1011.3
20260905140038 21 68 3.2 12.9 0.00 0.00 0.00 76 1011.4
20260905135018 21 248 3.2 12.9 0.00 0.00 0.00 76 1011.4
20260905134018 21 135 3.2 6.4 0.00 0.00 0.00 76 1011.4
20260905133017 21 90 1.6 6.4 0.00 0.00 0.00 77 1011.2
20260905132018 21 338 1.6 6.4 0.00 0.00 0.00 77 1011.2
20260905131018 21 90 1.6 8.0 0.00 0.00 0.00 76 1011.1
20260905130018 21 45 3.2 8.0 0.00 0.00 0.00 77 1011.0